Change the Weather History Date:

Wednesday, May 30, 2012

  Actual Average Record
Temperature  
Mean Temperature 73 °F 72 °F  
Max Temperature 82 °F 83 °F 95 °F (1895)
Min Temperature 64 °F 61 °F 48 °F (1946)
Degree Days  
Heating Degree Days 0 1  
Month to date heating degree days 10 54  
Since 1 July heating degree days 2528 3243  
Cooling Degree Days 8 8  
Month to date cooling degree days 221 141  
Year to date cooling degree days 310 202  
Growing Degree Days 23 (Base 50)    
Moisture  
Dew Point 67 °F    
Average Humidity 69    
Maximum Humidity 93    
Minimum Humidity 45    
Precipitation  
Precipitation 0.39 in 0.13 in 1.69 in (1948)
Month to date precipitation 3.86 3.15  
Year to date precipitation 15.75 16.91  
Sea Level Pressure  
Sea Level Pressure 29.78 in    
Wind  
Wind Speed 5 mph (NE)    
Max Wind Speed 17 mph    
Max Gust Speed 23 mph    
Visibility 7 miles    
Events Rain    
T = Trace of Precipitation, MM = Missing Value Source: NWS Daily Summary

Daily Weather History Graph

Daily Weather History Graph

Search for Another Location

Airport or City:

Trip Planner

Search our weather history database for the weather conditions in past years. The results will help you decide how hot, cold, wet, or windy it might be!

Date:

Astronomy

May. 30, 2012 Rise Set
Actual Time 6:00 AM EDT 8:25 PM EDT
Civil Twilight 5:31 AM EDT 8:54 PM EDT
Nautical Twilight 4:54 AM EDT 9:31 PM EDT
Astronomical Twilight 4:14 AM EDT 10:11 PM EDT
Moon 3:10 PM EDT (5/30) 2:14 AM EDT (5/30)
Length of Visible Light 15h 23m
Length of Day
14h 24m
Waxing Gibbous, 70% of the Moon is Illuminated
May 30
Waxing Gibbous
Jun 4
Full
Jun 11
Last Quarter
Jun 19
New
Jun 26
First Quarter

Hourly Weather History & Observations

Time (EDT) Temp. Heat Index Dew Point Humidity Pressure Visibility Wind Dir Wind Speed Gust Speed Precip Events Conditions
12:51 AM 73.0 °F - 69.1 °F 87% 29.86 in 10.0 mi Calm Calm - N/A   Overcast
1:51 AM 73.0 °F - 70.0 °F 90% 29.83 in 9.0 mi South 4.6 mph - 0.00 in   Overcast
2:24 AM 73.4 °F - 71.6 °F 94% 29.83 in 9.0 mi South 3.5 mph - 0.01 in   Overcast
2:51 AM 73.0 °F - 71.1 °F 93% 29.80 in 6.0 mi South 4.6 mph - 0.01 in Rain Light Rain
3:51 AM 72.0 °F - 70.0 °F 93% 29.79 in 6.0 mi SSE 3.5 mph - 0.01 in   Overcast
4:51 AM 72.0 °F - 70.0 °F 93% 29.80 in 6.0 mi Calm Calm - 0.07 in Rain Light Rain
5:49 AM 71.6 °F - 71.6 °F 100% 29.79 in 2.0 mi Calm Calm - 0.04 in Rain Light Rain
5:51 AM 72.0 °F - 71.1 °F 97% 29.78 in 2.0 mi NNE 3.5 mph - 0.04 in Rain Light Rain
6:17 AM 71.6 °F - 69.8 °F 94% 29.80 in 2.0 mi Calm Calm - 0.02 in Rain Light Rain
6:51 AM 72.0 °F - 70.0 °F 93% 29.79 in 2.0 mi Calm Calm - 0.03 in Rain Light Rain
7:51 AM 72.0 °F - 70.0 °F 93% 29.78 in 4.0 mi NE 4.6 mph - 0.03 in Rain Light Rain
8:51 AM 71.1 °F - 69.1 °F 93% 29.78 in 4.0 mi NE 3.5 mph - 0.07 in Rain Light Rain
9:51 AM 72.0 °F - 70.0 °F 93% 29.77 in 4.0 mi NNE 5.8 mph - 0.09 in Rain Light Rain
10:51 AM 71.1 °F - 69.1 °F 93% 29.76 in 5.0 mi NNE 8.1 mph - 0.04 in Rain Light Rain
11:15 AM 71.6 °F - 69.8 °F 94% 29.77 in 6.0 mi NE 8.1 mph - 0.00 in   Overcast
11:51 AM 72.0 °F - 69.1 °F 91% 29.75 in 8.0 mi NE 11.5 mph - 0.00 in   Overcast
12:51 PM 73.0 °F - 68.0 °F 84% 29.75 in 10.0 mi NNE 8.1 mph 20.7 mph N/A   Overcast
1:51 PM 75.9 °F - 68.0 °F 76% 29.73 in 10.0 mi NE 15.0 mph 21.9 mph N/A   Mostly Cloudy
2:51 PM 78.1 °F - 66.0 °F 66% 29.72 in 10.0 mi NNE 9.2 mph 23.0 mph N/A   Mostly Cloudy
3:51 PM 80.1 °F 81.9 °F 64.9 °F 60% 29.72 in 10.0 mi North 9.2 mph 18.4 mph N/A   Scattered Clouds
4:51 PM 81.0 °F 82.5 °F 64.0 °F 56% 29.72 in 10.0 mi North 10.4 mph - N/A   Scattered Clouds
5:51 PM 82.0 °F 82.7 °F 61.0 °F 49% 29.73 in 10.0 mi North 6.9 mph - N/A   Scattered Clouds
6:51 PM 81.0 °F 81.0 °F 57.0 °F 44% 29.74 in 10.0 mi North 5.8 mph - N/A   Partly Cloudy
7:51 PM 75.9 °F - 62.1 °F 62% 29.75 in 10.0 mi Calm Calm - N/A   Partly Cloudy
8:51 PM 70.0 °F - 63.0 °F 78% 29.77 in 10.0 mi Calm Calm - N/A   Partly Cloudy
9:51 PM 69.1 °F - 63.0 °F 81% 29.79 in 10.0 mi Calm Calm - N/A   Partly Cloudy
10:51 PM 64.9 °F - 62.1 °F 90% 29.80 in 10.0 mi Calm Calm - N/A   Partly Cloudy
11:51 PM 64.0 °F - 62.1 °F 93% 29.81 in 10.0 mi Calm Calm - N/A   Clear